AP679 Weather Reports


time (UTC)temp
C
wind
direction
speed
KPH
gust
KPH
rain 1hr
cm
rain 24hr
cm
rain mn
cm
humidity
%
barometer
mb
20260510113504 18 34 14.5 22.5 0.00 0.00 0.00 58 1013.7
20260510113003 18 69 6.4 20.9 0.00 0.00 0.00 60 1013.7
20260510112003 18 42 16.1 27.4 0.00 0.00 0.00 59 1013.9
20260510111503 18 81 9.7 22.5 0.00 0.00 0.00 60 1013.9
20260510111003 18 16 11.3 22.5 0.00 0.00 0.00 58 1013.9
20260510110503 18 34 11.3 22.5 0.00 0.00 0.00 59 1013.9
20260510110003 18 26 11.3 19.3 0.00 0.00 0.00 59 1013.8
20260510105504 18 30 11.3 20.9 0.00 0.00 0.00 58 1014.0
20260510105004 18 51 11.3 20.9 0.00 0.00 0.00 59 1014.1
20260510104504 18 29 12.9 19.3 0.00 0.00 0.00 59 1014.2
20260510104004 18 22 6.4 19.3 0.00 0.00 0.00 61 1014.2
20260510103503 18 29 11.3 20.9 0.00 0.00 0.00 60 1014.2
20260510103004 18 32 14.5 22.5 0.00 0.00 0.00 61 1014.2
20260510102504 18 13 11.3 19.3 0.00 0.00 0.00 61 1014.2
20260510101503 18 350 9.7 19.3 0.00 0.00 0.00 60 1014.4
20260510101004 18 22 9.7 22.5 0.00 0.00 0.00 61 1014.5
20260510100504 18 20 11.3 22.5 0.00 0.00 0.00 61 1014.5
20260510095503 17 0 6.4 19.3 0.00 0.00 0.00 61 1014.6
20260510095004 17 23 11.3 24.1 0.00 0.00 0.00 61 1014.6
20260510094504 18 328 11.3 20.9 0.00 0.00 0.00 60 1014.6
20260510094004 17 8 9.7 20.9 0.00 0.00 0.00 61 1014.7
20260510093504 17 358 9.7 20.9 0.00 0.00 0.00 62 1014.8
20260510093004 17 324 9.7 24.1 0.00 0.00 0.00 63 1014.8
20260510092504 17 23 11.3 20.9 0.00 0.00 0.00 64 1014.9
20260510092003 17 24 9.7 22.5 0.00 0.00 0.00 64 1014.8
20260510091504 17 35 11.3 20.9 0.00 0.00 0.00 64 1014.9
20260510091003 17 8 8.0 20.9 0.00 0.00 0.00 64 1014.8
20260510090504 17 42 11.3 24.1 0.00 0.00 0.00 65 1014.9
20260510090003 17 31 14.5 19.3 0.00 0.00 0.00 65 1014.9
20260510085504 17 46 14.5 27.4 0.00 0.00 0.00 65 1014.9
20260510085004 17 37 9.7 22.5 0.00 0.00 0.00 67 1014.9
20260510084504 17 22 14.5 22.5 0.00 0.00 0.00 67 1014.9
20260510084003 16 338 9.7 19.3 0.00 0.00 0.00 68 1015.0
20260510083504 16 33 9.7 19.3 0.00 0.00 0.00 68 1015.0
20260510083003 16 23 8.0 19.3 0.00 0.00 0.00 69 1015.1
20260510082504 16 34 9.7 19.3 0.00 0.00 0.00 70 1015.1
20260510082004 16 20 11.3 24.1 0.00 0.00 0.00 70 1015.2
20260510081504 16 25 14.5 24.1 0.00 0.00 0.00 70 1015.2
20260510081004 16 26 11.3 20.9 0.00 0.00 0.00 70 1015.2
20260510080504 16 12 12.9 19.3 0.00 0.00 0.00 70 1015.3
20260510080004 16 0 8.0 14.5 0.00 0.00 0.00 72 1015.4
20260510075504 15 16 6.4 19.3 0.00 0.00 0.00 73 1015.4
20260510075003 15 41 9.7 19.3 0.00 0.00 0.00 74 1015.4
20260510074503 15 28 11.3 19.3 0.00 0.00 0.00 74 1015.4
20260510074004 15 22 14.5 20.9 0.00 0.00 0.00 74 1015.4
20260510073503 15 12 11.3 19.3 0.00 0.00 0.00 75 1015.4
20260510073004 15 30 6.4 19.3 0.00 0.00 0.00 76 1015.4
20260510072504 15 22 8.0 19.3 0.00 0.00 0.00 77 1015.5
20260510072003 15 27 11.3 19.3 0.00 0.00 0.00 76 1015.7
20260510071504 15 27 9.7 19.3 0.00 0.00 0.00 77 1015.6
20260510071003 14 17 11.3 19.3 0.00 0.00 0.00 77 1015.6
20260510070503 14 31 11.3 22.5 0.00 0.00 0.00 78 1015.6
20260510070004 14 25 11.3 19.3 0.00 0.00 0.00 79 1015.5
20260510065504 14 38 9.7 16.1 0.00 0.00 0.00 80 1015.6
20260510065004 14 47 9.7 14.5 0.00 0.00 0.00 81 1015.6
20260510064003 13 30 6.4 12.9 0.00 0.00 0.00 82 1015.6
20260510063503 13 32 4.8 12.9 0.00 0.00 0.00 83 1015.6
20260510063004 13 22 9.7 19.3 0.00 0.00 0.00 83 1015.6
20260510062504 13 28 9.7 19.3 0.00 0.00 0.00 84 1015.6
20260510062003 13 25 6.4 16.1 0.00 0.00 0.00 86 1015.7
20260510061003 12 28 8.0 16.1 0.00 0.00 0.00 88 1015.7
20260510060005 12 27 4.8 9.7 0.00 0.00 0.00 90 1015.7
20260510055504 12 38 4.8 12.9 0.00 0.00 0.00 90 1015.7
20260510055005 12 10 4.8 12.9 0.00 0.00 0.00 90 1015.7
20260510054504 12 20 6.4 12.9 0.00 0.00 0.00 90 1015.7
20260510054003 11 34 3.2 12.9 0.00 0.00 0.00 90 1015.7
20260510053504 11 33 3.2 11.3 0.00 0.00 0.00 91 1015.8
20260510053004 11 31 4.8 12.9 0.00 0.00 0.00 91 1015.7
20260510052504 11 6 6.4 12.9 0.00 0.00 0.00 91 1015.7
20260510052003 11 19 4.8 12.9 0.00 0.00 0.00 91 1015.7
20260510051504 11 22 4.8 12.9 0.00 0.00 0.00 91 1015.7
20260510051004 11 20 4.8 9.7 0.00 0.00 0.00 92 1015.6
20260510045503 11 17 4.8 11.3 0.00 0.00 0.00 92 1015.5
20260510045004 11 25 1.6 8.0 0.00 0.00 0.00 92 1015.5
20260510044504 11 22 6.4 12.9 0.00 0.00 0.00 92 1015.5
20260510044004 11 19 6.4 12.9 0.00 0.00 0.00 92 1015.4
20260510043004 11 32 4.8 12.9 0.00 0.00 0.00 92 1015.4
20260510042504 11 37 4.8 11.3 0.00 0.00 0.00 92 1015.4
20260510042003 11 34 4.8 14.5 0.00 0.00 0.00 92 1015.4
20260510041504 11 34 3.2 11.3 0.00 0.00 0.00 92 1015.4
20260510040504 11 34 3.2 9.7 0.00 0.00 0.00 92 1015.5
20260510040004 11 33 3.2 8.0 0.00 0.00 0.00 92 1015.4
20260510035503 11 33 3.2 8.0 0.00 0.00 0.00 92 1015.5
20260510035003 11 34 3.2 8.0 0.00 0.00 0.00 92 1015.6
20260510034504 11 34 4.8 8.0 0.00 0.00 0.00 92 1015.5
20260510034004 11 33 3.2 4.8 0.00 0.00 0.00 92 1015.5
20260510033505 11 34 3.2 8.0 0.00 0.00 0.00 92 1015.5
20260510033004 11 34 4.8 9.7 0.00 0.00 0.00 92 1015.5
20260510032504 11 28 4.8 11.3 0.00 0.00 0.00 92 1015.6
20260510032004 11 29 4.8 11.3 0.00 0.00 0.00 92 1015.5
20260510031504 11 33 3.2 9.7 0.00 0.00 0.00 92 1015.6
20260510031003 11 34 3.2 8.0 0.00 0.00 0.00 92 1015.6
20260510030003 11 36 3.2 8.0 0.00 0.00 0.00 92 1015.5
20260510025505 11 36 3.2 8.0 0.00 0.00 0.00 92 1015.6
20260510025004 11 31 3.2 8.0 0.00 0.00 0.00 92 1015.5
20260510024004 11 30 3.2 9.7 0.00 0.00 0.00 91 1015.6
20260510023004 11 30 4.8 11.3 0.00 0.00 0.00 91 1015.6
20260510022504 11 34 4.8 11.3 0.00 0.00 0.00 91 1015.6
20260510021504 11 36 3.2 8.0 0.00 0.00 0.00 91 1015.8
20260510021004 11 35 3.2 8.0 0.00 0.00 0.00 90 1015.8
20260510020504 11 35 1.6 4.8 0.00 0.00 0.00 90 1015.8
20260510020004 11 35 1.6 8.0 0.00 0.00 0.00 90 1015.8
20260510015504 11 35 4.8 8.0 0.00 0.00 0.00 90 1015.8
20260510015005 12 35 1.6 8.0 0.00 0.00 0.00 90 1015.8
20260510014504 12 35 3.2 4.8 0.00 0.00 0.00 89 1015.8
20260510014003 12 35 3.2 9.7 0.00 0.00 0.00 89 1015.8
20260510013503 12 36 4.8 8.0 0.00 0.00 0.00 89 1015.8
20260510013004 12 36 3.2 8.0 0.00 0.00 0.00 89 1015.8
20260510012504 12 36 3.2 11.3 0.00 0.00 0.00 89 1015.8
20260510011504 12 28 3.2 9.7 0.00 0.00 0.00 88 1015.9
20260510011004 12 29 3.2 9.7 0.00 0.00 0.00 88 1015.9
20260510010504 12 28 3.2 8.0 0.00 0.00 0.00 87 1015.9
20260510010003 12 29 1.6 4.8 0.00 0.00 0.00 87 1015.9
20260510005503 12 28 4.8 11.3 0.00 0.00 0.00 87 1015.9
20260510005004 12 26 4.8 9.7 0.00 0.00 0.00 86 1015.9
20260510004504 12 24 3.2 8.0 0.00 0.00 0.00 86 1016.0
20260510004003 12 24 3.2 9.7 0.00 0.00 0.00 86 1016.1
20260510003503 12 38 3.2 8.0 0.00 0.00 0.00 85 1016.2
20260510002504 12 39 1.6 4.8 0.00 0.00 0.00 84 1016.2
20260510001504 12 39 3.2 9.7 0.00 0.00 0.00 84 1016.1
20260510001003 12 40 1.6 8.0 0.00 0.00 0.00 84 1016.3
20260510000504 12 40 1.6 4.8 0.00 0.00 0.00 84 1016.3
20260510000004 12 40 1.6 8.0 0.00 0.00 0.00 83 1016.4
20260509235505 12 40 1.6 8.0 0.00 0.00 0.00 83 1016.5
20260509235004 12 40 3.2 9.7 0.00 0.00 0.00 83 1016.5
20260509234504 12 40 3.2 8.0 0.00 0.00 0.00 83 1016.5
20260509234004 12 40 1.6 4.8 0.00 0.00 0.00 82 1016.5
20260509233503 12 40 3.2 4.8 0.00 0.00 0.00 82 1016.5
20260509233004 12 41 3.2 4.8 0.00 0.00 0.00 81 1016.4
20260509232504 12 42 1.6 4.8 0.00 0.00 0.00 81 1016.5
20260509232004 12 42 1.6 4.8 0.00 0.00 0.00 80 1016.5
20260509231506 13 42 1.6 4.8 0.00 0.00 0.00 80 1016.5
20260509231004 13 42 0.0 4.8 0.00 0.00 0.00 79 1016.5
20260509230504 13 42 1.6 4.8 0.00 0.00 0.00 79 1016.5
20260509230004 13 42 1.6 8.0 0.00 0.00 0.00 78 1016.5
20260509225004 13 42 1.6 4.8 0.00 0.00 0.00 78 1016.5
20260509224504 13 42 1.6 4.8 0.00 0.00 0.00 77 1016.4
20260509224004 13 42 1.6 4.8 0.00 0.00 0.00 77 1016.5
20260509223505 13 42 1.6 4.8 0.00 0.00 0.00 76 1016.5
20260509223004 13 42 0.0 4.8 0.00 0.00 0.00 75 1016.4
20260509222504 13 42 1.6 4.8 0.00 0.00 0.00 75 1016.4
20260509222004 14 42 3.2 4.8 0.00 0.00 0.00 74 1016.5
20260509221505 14 42 1.6 4.8 0.00 0.00 0.00 73 1016.5
20260509221004 14 42 1.6 4.8 0.00 0.00 0.00 73 1016.4
20260509220504 14 42 3.2 4.8 0.00 0.00 0.00 73 1016.5
20260509215504 14 42 1.6 4.8 0.00 0.00 0.00 73 1016.6
20260509215005 14 42 1.6 4.8 0.00 0.00 0.00 72 1016.5
20260509214504 15 42 3.2 4.8 0.00 0.00 0.00 72 1016.4
20260509214004 15 42 3.2 4.8 0.00 0.00 0.00 72 1016.5
20260509213504 15 43 3.2 8.0 0.00 0.00 0.00 72 1016.5
20260509213003 15 33 3.2 4.8 0.00 0.00 0.00 72 1016.5
20260509212504 15 33 3.2 8.0 0.00 0.00 0.00 72 1016.4
20260509212003 15 33 4.8 8.0 0.00 0.00 0.00 72 1016.3
20260509211503 15 33 3.2 8.0 0.00 0.00 0.00 73 1016.3
20260509211003 15 31 3.2 8.0 0.00 0.00 0.00 73 1016.2
20260509210503 15 30 3.2 8.0 0.00 0.00 0.00 74 1016.2
20260509210004 15 32 3.2 8.0 0.00 0.00 0.00 75 1016.2
20260509205505 15 32 3.2 8.0 0.00 0.00 0.00 76 1016.3
20260509205004 15 31 3.2 8.0 0.00 0.00 0.00 76 1016.3
20260509204004 15 31 3.2 4.8 0.00 0.00 0.00 76 1016.3
20260509203503 15 31 3.2 9.7 0.00 0.00 0.00 76 1016.2
20260509203004 15 30 1.6 4.8 0.00 0.00 0.00 75 1016.4
20260509202505 15 30 1.6 4.8 0.00 0.00 0.00 75 1016.3
20260509202003 15 30 1.6 8.0 0.00 0.00 0.00 74 1016.4
20260509201504 16 30 1.6 4.8 0.00 0.00 0.00 74 1016.4
20260509201004 16 30 1.6 8.0 0.00 0.00 0.00 73 1016.3
20260509200504 16 30 1.6 4.8 0.00 0.00 0.00 73 1016.2
20260509200004 16 30 3.2 4.8 0.00 0.00 0.00 73 1016.2
20260509195503 16 30 1.6 4.8 0.00 0.00 0.00 72 1016.2
20260509191004 17 341 3.2 9.7 0.00 0.00 0.00 68 1016.1
20260509190504 17 341 4.8 11.3 0.00 0.00 0.00 67 1016.1
20260509185503 18 339 1.6 8.0 0.00 0.00 0.00 66 1016.0
20260509185004 18 338 4.8 12.9 0.00 0.00 0.00 65 1016.0
20260509184504 18 324 4.8 12.9 0.00 0.00 0.00 64 1016.0
20260509183504 18 355 4.8 11.3 0.00 0.00 0.00 61 1016.0
20260509183003 19 340 4.8 12.9 0.00 0.00 0.00 59 1016.0
20260509182504 19 329 3.2 11.3 0.00 0.00 0.00 59 1016.0
20260509182004 19 327 4.8 11.3 0.00 0.00 0.00 58 1016.0
20260509181504 19 329 4.8 11.3 0.00 0.00 0.00 58 1015.9
20260509181004 19 332 6.4 12.9 0.00 0.00 0.00 58 1015.9
20260509180503 20 324 6.4 14.5 0.00 0.00 0.00 58 1015.8
20260509180004 20 31 8.0 16.1 0.00 0.00 0.00 57 1015.8
20260509175503 20 328 8.0 14.5 0.00 0.00 0.00 57 1015.8
20260509175004 20 11 6.4 12.9 0.00 0.00 0.00 57 1015.7
20260509174503 20 358 8.0 12.9 0.00 0.00 0.00 56 1015.7
20260509174003 20 322 8.0 20.9 0.00 0.00 0.00 56 1015.7
20260509173504 20 334 9.7 19.3 0.00 0.00 0.00 56 1015.7
20260509173004 20 25 8.0 16.1 0.00 0.00 0.00 56 1015.6
20260509172504 20 12 8.0 16.1 0.00 0.00 0.00 55 1015.6
20260509172004 20 23 6.4 14.5 0.00 0.00 0.00 55 1015.6
20260509171503 20 325 6.4 16.1 0.00 0.00 0.00 55 1015.6
20260509170004 21 31 8.0 16.1 0.00 0.00 0.00 55 1015.8
20260509165003 21 353 8.0 19.3 0.00 0.00 0.00 54 1015.8
20260509164505 21 24 8.0 14.5 0.00 0.00 0.00 54 1015.7
20260509164003 21 333 8.0 19.3 0.00 0.00 0.00 54 1015.7
20260509163504 21 337 8.0 14.5 0.00 0.00 0.00 53 1015.7
20260509163005 22 24 6.4 11.3 0.00 0.00 0.00 52 1015.8
20260509162503 22 355 4.8 19.3 0.00 0.00 0.00 52 1015.7
20260509162004 22 357 4.8 16.1 0.00 0.00 0.00 53 1015.7
20260509161503 22 346 9.7 16.1 0.00 0.00 0.00 52 1015.8
20260509160003 22 9 4.8 19.3 0.00 0.00 0.00 51 1015.7
20260509155004 23 323 6.4 14.5 0.00 0.00 0.00 49 1015.7
20260509154504 23 30 4.8 9.7 0.00 0.00 0.00 48 1015.7
20260509154004 22 32 1.6 4.8 0.00 0.00 0.00 47 1015.8
20260509153504 22 32 3.2 9.7 0.00 0.00 0.00 47 1015.7
20260509153005 22 31 4.8 14.5 0.00 0.00 0.00 47 1015.7
20260509152504 22 38 6.4 9.7 0.00 0.00 0.00 47 1015.8
20260509152003 22 60 6.4 12.9 0.00 0.00 0.00 47 1015.8
20260509151004 22 15 4.8 11.3 0.00 0.00 0.00 49 1015.9
20260509145503 21 41 4.8 9.7 0.00 0.00 0.00 51 1015.9
20260509145003 21 28 3.2 8.0 0.00 0.00 0.00 52 1016.0
20260509144004 21 110 3.2 8.0 0.00 0.00 0.00 51 1016.1
20260509143504 21 61 3.2 8.0 0.00 0.00 0.00 51 1016.2
20260509143004 21 75 3.2 12.9 0.00 0.00 0.00 51 1016.2
20260509142504 21 25 4.8 11.3 0.00 0.00 0.00 51 1016.2
20260509142003 21 108 3.2 8.0 0.00 0.00 0.00 51 1016.2
20260509141503 21 50 3.2 8.0 0.00 0.00 0.00 51 1016.2
20260509141004 22 16 4.8 12.9 0.00 0.00 0.00 50 1016.2
20260509140504 22 66 4.8 8.0 0.00 0.00 0.00 50 1016.3
20260509140004 22 98 4.8 11.3 0.00 0.00 0.00 49 1016.3
20260509135504 22 37 3.2 9.7 0.00 0.00 0.00 50 1016.3
20260509135004 22 19 9.7 14.5 0.00 0.00 0.00 50 1016.4
20260509134503 22 30 8.0 12.9 0.00 0.00 0.00 49 1016.4
20260509134004 22 96 1.6 8.0 0.00 0.00 0.00 50 1016.4
20260509133503 22 22 1.6 9.7 0.00 0.00 0.00 51 1016.6
20260509133004 22 25 8.0 12.9 0.00 0.00 0.00 51 1016.6
20260509132504 22 34 4.8 14.5 0.00 0.00 0.00 51 1016.7
20260509132004 22 35 4.8 12.9 0.00 0.00 0.00 51 1016.8
20260509131504 22 43 6.4 14.5 0.00 0.00 0.00 51 1016.8
20260509131004 22 29 4.8 16.1 0.00 0.00 0.00 51 1016.8
20260509130503 21 7 4.8 12.9 0.00 0.00 0.00 52 1016.9
20260509130004 21 53 1.6 4.8 0.00 0.00 0.00 53 1017.0
20260509125503 21 52 0.0 9.7 0.00 0.00 0.00 52 1017.1
20260509125003 21 61 4.8 12.9 0.00 0.00 0.00 52 1017.1
20260509124504 22 70 8.0 16.1 0.00 0.00 0.00 50 1017.1
20260509124005 21 94 1.6 8.0 0.00 0.00 0.00 51 1017.2
20260509123004 22 96 1.6 8.0 0.00 0.00 0.00 50 1017.3
20260509122504 22 99 3.2 11.3 0.00 0.00 0.00 50 1017.3
20260509121504 22 47 4.8 11.3 0.00 0.00 0.00 51 1017.5
20260509121004 22 67 4.8 14.5 0.00 0.00 0.00 51 1017.5
20260509120504 22 80 1.6 8.0 0.00 0.00 0.00 52 1017.6
20260509120003 21 84 0.0 11.3 0.00 0.00 0.00 51 1017.6
20260509115503 22 59 8.0 12.9 0.00 0.00 0.00 51 1017.6
20260509115005 22 62 4.8 12.9 0.00 0.00 0.00 51 1017.6
20260509114504 22 51 3.2 12.9 0.00 0.00 0.00 52 1017.7
20260509114003 22 122 3.2 8.0 0.00 0.00 0.00 51 1017.7